N9XP-9 Weather Reports


time (UTC)temp
C
wind
direction
speed
KPH
gust
KPH
rain 1hr
cm
rain 24hr
cm
rain mn
cm
humidity
%
barometer
mb
20260904064558 24 26 0.0 0.0 0.00 0.00 0.00 94 1011.7
20260904063054 24 26 0.0 0.0 0.00 0.00 0.00 94 1012.2
20260904061553 24 26 0.0 0.0 0.00 0.00 0.00 94 1012.5
20260904060052 24 26 0.0 0.0 0.00 0.00 0.00 94 1012.5
20260904054549 25 27 0.0 0.0 0.00 0.00 0.00 93 1012.7
20260904053047 25 28 0.0 0.0 0.00 0.00 0.00 92 1012.7
20260904051545 25 27 0.0 0.0 0.00 0.00 0.00 92 1012.7
20260904050046 25 27 0.0 0.0 0.00 0.00 0.00 91 1012.6
20260904044542 25 28 0.0 0.0 0.00 0.00 0.00 91 1012.5
20260904043041 25 27 0.0 0.0 0.00 0.00 0.00 90 1012.5
20260904041541 26 25 0.0 0.0 0.00 0.00 0.00 89 1012.5
20260904040039 26 26 0.0 0.0 0.00 0.00 0.00 88 1012.5
20260904034538 26 25 0.0 0.0 0.00 0.00 0.00 87 1012.6
20260904033039 26 27 0.0 0.0 0.00 0.00 0.00 86 1012.6
20260904031538 27 29 0.0 0.0 0.00 0.00 0.00 84 1012.5
20260904030037 27 27 0.0 0.0 0.00 0.00 0.00 83 1012.8
20260904024537 27 27 0.0 1.6 0.00 0.00 0.00 81 1012.6
20260904023036 27 29 0.0 1.6 0.00 0.00 0.00 80 1012.6
20260904021548 27 6 0.0 1.6 0.00 0.00 0.00 79 1012.6
20260904020036 27 337 0.0 0.0 0.00 0.00 0.00 78 1012.5
20260904014539 27 335 0.0 0.0 0.00 0.00 0.00 77 1012.4
20260904013035 27 335 0.0 1.6 0.00 0.00 0.00 77 1012.2
20260904011547 28 44 0.0 0.0 0.00 0.00 0.00 77 1011.9
20260904010036 28 94 0.0 0.0 0.00 0.00 0.00 76 1011.4
20260904004533 29 94 0.0 0.0 0.00 0.00 0.00 73 1011.1
20260904003034 30 95 0.0 3.2 0.00 0.00 0.00 70 1010.8
20260904001532 30 146 0.0 6.4 0.00 0.00 0.00 67 1010.9
20260904000031 30 174 0.0 4.8 0.00 0.00 0.00 66 1010.9
20260903234528 31 132 0.0 1.6 0.00 0.00 0.00 65 1011.1
20260903233026 31 143 0.0 3.2 0.00 0.00 0.00 62 1011.2
20260903231525 32 130 0.0 4.8 0.00 0.00 0.00 62 1011.2
20260903230034 32 145 0.0 11.3 0.00 0.00 0.00 60 1011.4
20260903224532 32 155 4.8 11.3 0.00 0.00 0.00 58 1011.4
20260903223023 32 148 0.0 4.8 0.00 0.00 0.00 59 1011.3
20260903221520 33 158 0.0 4.8 0.00 0.00 0.00 57 1011.6
20260903220034 33 166 3.2 8.0 0.00 0.00 0.00 56 1011.6
20260903214522 33 160 3.2 8.0 0.00 0.00 0.00 54 1011.6
20260903213023 33 153 3.2 9.7 0.00 0.00 0.00 56 1011.6
20260903211515 33 147 0.0 8.0 0.00 0.00 0.00 58 1011.6
20260903210017 32 153 1.6 9.7 0.00 0.00 0.00 58 1011.8
20260903204514 32 166 1.6 6.4 0.00 0.00 0.00 58 1011.7
20260903203008 32 150 1.6 9.7 0.00 0.00 0.00 61 1011.9
20260903201514 32 78 3.2 12.9 0.00 0.00 0.00 60 1012.0
20260903200005 31 99 1.6 8.0 0.00 0.00 0.00 63 1012.2
20260903194503 31 98 3.2 8.0 0.00 0.00 0.00 61 1012.4
20260903193002 32 111 0.0 9.7 0.00 0.00 0.00 63 1012.5
20260903191602 32 118 1.6 4.8 0.00 0.00 0.00 61 1012.6
20260903190057 31 57 0.0 6.4 0.00 0.00 0.00 62 1012.7
20260903184553 31 104 0.0 3.2 0.00 0.00 0.00 66 1012.9
20260903183052 30 7 1.6 11.3 0.00 0.00 0.00 67 1013.2
20260903181551 30 93 0.0 3.2 0.00 0.00 0.00 67 1013.3
20260903180050 28 20 0.0 9.7 0.00 0.00 0.00 69 1013.6
20260903174549 28 4 3.2 11.3 0.00 0.00 0.00 72 1013.7
20260903173050 27 356 3.2 19.3 0.00 0.00 0.00 76 1013.8
20260903171555 28 351 11.3 17.7 0.00 0.00 0.00 71 1014.2
20260903170049 28 342 6.4 17.7 0.00 0.00 0.00 71 1014.2
20260903164546 28 283 3.2 16.1 0.00 0.00 0.00 70 1014.2
20260903163046 28 30 11.3 24.1 0.00 0.00 0.00 67 1014.1
20260903161546 28 1 6.4 14.5 0.00 0.00 0.00 70 1014.0
20260903160042 28 231 6.4 24.1 0.00 0.00 0.00 69 1013.8
20260903154540 30 328 0.0 6.4 0.00 0.00 0.00 68 1013.5
20260903153037 30 236 1.6 9.7 0.00 0.00 0.00 70 1012.8
20260903151535 29 188 3.2 11.3 0.00 0.00 0.00 70 1012.8
20260903150043 28 157 0.0 6.4 0.00 0.00 0.00 72 1012.8
20260903144532 28 160 4.8 11.3 0.00 0.00 0.00 71 1012.8
20260903143037 28 265 0.0 8.0 0.00 0.00 0.00 73 1012.8
20260903141533 28 156 1.6 8.0 0.00 0.00 0.00 75 1012.7
20260903140021 27 131 0.0 8.0 0.00 0.00 0.00 77 1012.7
20260903134535 27 146 1.6 6.4 0.00 0.00 0.00 77 1012.6
20260903133015 26 301 4.8 9.7 0.00 0.00 0.00 79 1012.7
20260903131511 26 134 1.6 11.3 0.00 0.00 0.00 82 1012.8
20260903130006 25 154 1.6 8.0 0.00 0.00 0.00 84 1012.8
20260903124505 25 150 1.6 4.8 0.00 0.00 0.00 86 1012.9
20260903123008 24 173 0.0 1.6 0.00 0.00 0.00 88 1012.9
20260903121503 23 236 0.0 1.6 0.00 0.00 0.00 89 1013.0
20260903120003 23 237 0.0 1.6 0.00 0.00 0.00 90 1013.0
20260903114501 23 234 0.0 0.0 0.00 0.00 0.00 89 1012.9
20260903113100 23 237 0.0 0.0 0.00 0.00 0.00 88 1012.8
20260903111600 23 236 0.0 4.8 0.00 0.00 0.00 88 1012.7
20260903110059 23 163 0.0 1.6 0.00 0.00 0.00 88 1012.7
20260903104605 23 156 0.0 1.6 0.00 0.00 0.00 88 1012.8
20260903103057 23 128 0.0 1.6 0.00 0.00 0.00 89 1012.7
20260903101557 23 180 0.0 4.8 0.00 0.00 0.00 90 1012.6
20260903100056 23 142 0.0 1.6 0.00 0.00 0.00 92 1012.7
20260903094606 23 114 0.0 0.0 0.00 0.00 0.00 93 1012.7
20260903093058 23 113 0.0 1.6 0.00 0.00 0.00 93 1012.5
20260903091551 23 112 0.0 0.0 0.00 0.00 0.00 93 1012.5
20260903090050 23 113 0.0 0.0 0.00 0.00 0.00 92 1012.5
20260903084549 24 113 0.0 1.6 0.00 0.00 0.00 91 1012.4
20260903083049 24 113 0.0 1.6 0.00 0.00 0.00 92 1012.4
20260903081553 23 113 0.0 1.6 0.00 0.00 0.00 94 1012.4
20260903080047 23 129 0.0 0.0 0.00 0.00 0.00 94 1012.4
20260903074547 23 128 0.0 0.0 0.00 0.00 0.00 93 1012.4
20260903073058 23 127 0.0 0.0 0.00 0.00 0.00 93 1012.4
20260903071547 23 127 0.0 0.0 0.00 0.00 0.00 93 1012.5
20260903070043 23 127 0.0 0.0 0.00 0.00 0.00 93 1012.5